Home   Weather   Braunau am Inn   Past weeks

Flag for Austria Past Weather in Braunau am Inn, Upper Austria, Austria — Yesterday and Last 2 Weeks

Now
48 °F

Overcast.


Feels Like: 46 °F
Forecast: 28 / 60 °F
Wind: 5 mph from Northwest

Location: Salzburg-Flughafen

Current Time: Apr 23, 2017 at 6:03:14 pm

Latest Report: Apr 23, 2017 at 5:00 pm


Visibility: 22 mi

Pressure: 30.20 "Hg

Humidity: 54%

Dew Point: 32 °F

Location of Braunau am InnLocation

Past Weather in Braunau am Inn — Graph

°F

Braunau am Inn Temperature Yesterday

Maximum temperature yesterday: 54 °F (at 11:00 am)
Minimum temperature yesterday: 37 °F (at 12:00 am)
Average temperature yesterday: 45 °F

High & Low Weather Summary for the Past Weeks

 TemperatureHumidityPressure
High74 °F (Apr 10, 4:00 pm)97% (Apr 9, 3:00 am)30.60 "Hg (Apr 9, 3:00 am)
Low29 °F (Apr 21, 6:00 am)33% (Apr 10, 5:00 pm)29.88 "Hg (Apr 13, 3:00 am)
Average46 °F72%30.18 "Hg
* Reported Apr 8 4:00 pm — Apr 23 4:00 pm, Braunau am Inn, Weather by CustomWeather, © 2017

Note: Actual official high and low records may vary slightly from our data, if they occured in-between our weather recording intervals... More about our weather records

Advertising

Braunau am Inn Weather History for the Previous 24 Hours

Scroll right to see more
 ConditionsComfort  
Time TempWeatherWind HumidityBarometerVisibility
4:00 pm
Sun, Apr 23
48 °FOvercast.6 mph53%30.21 "Hg19 mi
3:00 pm47 °FOvercast.6 mph56%30.22 "Hg22 mi
1:00 pm45 °FOvercast.5 mph58%30.23 "Hg19 mi
12:00 pm45 °FOvercast.3 mph62%30.24 "Hg18 mi
11:00 am42 °FLow clouds.N/A80%30.26 "Hg14 mi
10:00 am39 °FLow clouds.N/A88%30.27 "Hg9 mi
9:00 am36 °FOvercast.N/A89%30.27 "Hg1 mi
8:00 am37 °FLight rain. Low clouds.N/A93%30.26 "Hg10 mi
7:00 am38 °FLight rain. Overcast.N/A90%30.24 "Hg11 mi
6:00 am38 °FLight rain. Overcast.N/A86%30.23 "Hg22 mi
5:00 am38 °FLight rain. Overcast.3 mph83%30.22 "Hg28 mi
4:00 am38 °FLight rain. Overcast.3 mph91%30.22 "Hg22 mi
3:00 am38 °FHeavy rain. Overcast.N/A93%30.22 "Hg4 mi
2:00 am38 °FLight rain. Low clouds.N/A91%30.22 "Hg17 mi
1:00 am39 °FLight rain. Overcast.N/A88%30.23 "Hg3 mi
12:00 am40 °FHeavy rain. Overcast.N/A87%30.22 "Hg5 mi
11:00 pm
Sat, Apr 22
40 °FLight rain. Overcast.3 mph87%30.21 "Hg9 mi
10:00 pm42 °FHeavy rain. Overcast.7 mph83%30.20 "Hg4 mi
9:00 pm46 °FLight rain. Overcast.3 mph80%30.16 "Hg8 mi
8:00 pm47 °FLight rain. Overcast.5 mph76%30.14 "Hg11 mi
7:00 pm49 °FLight rain. Overcast.5 mph66%30.12 "Hg9 mi
6:00 pm51 °FLight rain. Overcast.7 mph56%30.12 "Hg19 mi
Weather by CustomWeather, © 2017

See weather overviewHow to use our weather pages